Hourly Data Report for August 30, 2006

TORONTO CITY
ONTARIO

43°40'00.000" N
79°24'00.000" W
112.50 m
6158355
71508
XTO

Download Data

Hourly Data (August 2006)
Hourly Data Report for August 30, 2006
TIME
LST
Temp Definition
°C
Dew Point Definition
°C
Rel Hum Definition
%
Precip. Amount Definition
mm

Wind Dir Definition
10's deg

Wind Spd Definition
km/h
Visibility Definition
km
Stn Press Definition
kPa
Hmdx Definition


Wind Chill Definition


Weather Definition


00:00 17.7 16.0 90   LegendMM LegendMM   100.00     LegendNANA
01:00 19.2 16.1 82   LegendMM LegendMM   100.00     LegendNANA
02:00 18.8 15.7 82   LegendMM LegendMM   100.03     LegendNANA
03:00 18.1 15.1 83   LegendMM LegendMM   100.10     LegendNANA
04:00 17.3 14.6 84   LegendMM LegendMM   100.16     LegendNANA
05:00 16.6 14.0 85   LegendMM LegendMM   100.25     LegendNANA
06:00 16.1 13.4 84   LegendMM LegendMM   100.32     LegendNANA
07:00 16.3 13.1 81   LegendMM LegendMM   100.42     LegendNANA
08:00 17.1 12.0 72   LegendMM LegendMM   100.47     LegendNANA
09:00 18.2 12.7 70   LegendMM LegendMM   100.48     LegendNANA
10:00 19.0 12.2 65   LegendMM LegendMM   100.53     LegendNANA
11:00 20.3 12.4 60   LegendMM LegendMM   100.52     LegendNANA
12:00 21.1 13.1 60   LegendMM LegendMM   100.51     LegendNANA
13:00 21.4 13.2 60   LegendMM LegendMM   100.47     LegendNANA
14:00 20.8 12.9 61   LegendMM LegendMM   100.47     LegendNANA
15:00 20.2 13.1 64   LegendMM LegendMM   100.48     LegendNANA
16:00 19.5 13.5 68   LegendMM LegendMM   100.49     LegendNANA
17:00 19.0 13.7 71   LegendMM LegendMM   100.48     LegendNANA
18:00 18.7 13.6 72   LegendMM LegendMM   100.47     LegendNANA
19:00 18.1 13.4 74   LegendMM LegendMM   100.48     LegendNANA
20:00 18.1 13.2 73   LegendMM LegendMM   100.54     LegendNANA
21:00 17.4 13.1 76   LegendMM LegendMM   100.60     LegendNANA
22:00 17.0 13.2 78   LegendMM LegendMM   100.70     LegendNANA
23:00 17.1 10.4 65   LegendMM LegendMM   100.78     LegendNANA

Notes on Data Quality.

Legend

  • E = Estimated
  • M = Missing
  • NA = Not Available*
  • [empty] = Indicates an unobserved value
Date modified: